Regional Weather Roundup
Issued by NWS

Home | Current Version | Previous Version | Graphics & Text | Print | Product List | Glossary On
Versions: 1 2 3 4 5 6 7 8 9 10 11 12 13 14 15 16 17 18 19 20 21 22 23 24 25 26 27 28 29 30 31 32 33 34 35 36 37 38 39 40 41 42 43 44 45 46 47 48 49 50
000
ASUS45 KBOI 091210
RWRID

IDAHO REGIONAL WEATHER ROUNDUP
NATIONAL WEATHER SERVICE BOISE ID
500 AM MST FRI DEC 09 2016

NOTE: "FAIR" INDICATES FEW OR NO CLOUDS BELOW 12000 FEET
WITH NO SIGNIFICANT WEATHER AND/OR OBSTRUCTIONS TO VISIBILITY

IDZ012-014-091300-
SOUTHWEST IDAHO


CITY           SKY/WX    TMP DP  RH WIND       PRES   REMARKS
BOISE          CLOUDY    26  23  88 N3        30.14F
CALDWELL       CLOUDY    26  23  88 CALM      30.18S
MOUNTAIN HOME  CLOUDY    28  23  82 SE15      30.11F WCI  16
$$

IDZ016-017-091300-
SOUTHCENTRAL IDAHO


CITY           SKY/WX    TMP DP  RH WIND       PRES   REMARKS
BURLEY         FRZ RAIN  23  21  92 CALM      30.10S
JEROME         CLOUDY    22  19  89 NE16      30.11S WCI   8
TWIN FALLS     MIX PCPN  25  23  92 SE6       30.10S WCI  18
$$

IDZ019>023-091300-
SOUTHEAST IDAHO


CITY           SKY/WX    TMP DP  RH WIND       PRES   REMARKS
IDAHO FALLS    CLOUDY    20  16  84 CALM      30.13S
POCATELLO      CLOUDY    21  18  88 NE3       30.15R
REXBURG        CLOUDY    21  16  81 NE5       30.12R WCI  15
$$

IDZ006-010-011-018-031-032-091300-
CENTRAL IDAHO MOUNTAINS


CITY           SKY/WX    TMP DP  RH WIND       PRES   REMARKS
MCCALL         CLOUDY    19  15  84 CALM      30.03R
HAILEY         FLURRIES  21  19  93 NW8       30.09S WCI  12
STANLEY          N/A     17  15  92 E5        30.02F WCI  10
SALMON         CLOUDY    10   7  85 CALM      30.13F
CHALLIS        FLURRIES  13  10  88 CALM      30.09S
$$

IDZ002-004-006-007-026-091300-
NORTHERN IDAHO


CITY           SKY/WX    TMP DP  RH WIND       PRES   REMARKS
LEWISTON       CLOUDY    24  22  91 CALM      30.17R
LOWELL           N/A     25  19  78 CALM      30.22R
COEUR D`ALENE  LGT SNOW  15  10  80 N13       30.17R WCI   1
MULLAN PASS    LGT SNOW   2  -2  83 S12       29.89S FOG     WCI -15
$$



USA.gov is the U.S. government's official web portal to all federal, state and local government web resources and services.